| time (UTC) | temp F | wind direction | speed MPH | gust MPH | rain 1hr in | rain 24hr in | rain mn in | humidity % | barometer mb |
| 20260905212034 | 49 | 158 | 0.0 | 3.0 | 0.00 | 0.00 | 0.00 | 91 | 1008.3 |
| 20260905211601 | 49 | 150 | 0.0 | 2.0 | 0.00 | 0.00 | 0.00 | 91 | 1008.2 |
| 20260905211030 | 49 | 0 | 0.0 | 2.0 | 0.00 | 0.00 | 0.00 | 91 | 1008.3 |
| 20260905210533 | 49 | 0 | 0.0 | 2.0 | 0.00 | 0.00 | 0.00 | 91 | 1008.1 |
| 20260905210055 | 49 | 147 | 0.0 | 2.0 | 0.00 | 0.00 | 0.00 | 91 | 1008.1 |
| 20260905205530 | 49 | 146 | 0.0 | 1.0 | 0.00 | 0.00 | 0.00 | 91 | 1007.9 |
| 20260905205030 | 49 | 0 | 0.0 | 0.0 | 0.00 | 0.00 | 0.00 | 90 | 1008.0 |
| 20260905204549 | 49 | 0 | 0.0 | 0.0 | 0.00 | 0.00 | 0.00 | 90 | 1007.9 |
| 20260905204031 | 50 | 0 | 0.0 | 1.0 | 0.00 | 0.00 | 0.00 | 89 | 1007.9 |
| 20260905203535 | 50 | 0 | 0.0 | 2.0 | 0.00 | 0.00 | 0.00 | 89 | 1007.8 |
| 20260905203058 | 50 | 0 | 0.0 | 2.0 | 0.00 | 0.00 | 0.00 | 88 | 1007.8 |
| 20260905202532 | 51 | 0 | 0.0 | 2.0 | 0.00 | 0.00 | 0.00 | 87 | 1007.6 |
| 20260905202034 | 51 | 0 | 0.0 | 2.0 | 0.00 | 0.00 | 0.00 | 87 | 1007.6 |
| 20260905201603 | 51 | 145 | 0.0 | 4.0 | 0.00 | 0.00 | 0.00 | 87 | 1007.6 |
| 20260905201032 | 51 | 0 | 0.0 | 4.0 | 0.00 | 0.00 | 0.00 | 87 | 1007.5 |
| 20260905200533 | 51 | 0 | 0.0 | 3.0 | 0.00 | 0.00 | 0.00 | 87 | 1007.6 |
| 20260905200057 | 51 | 25 | 0.0 | 2.0 | 0.00 | 0.00 | 0.00 | 88 | 1007.5 |
| 20260905195530 | 51 | 0 | 0.0 | 0.0 | 0.00 | 0.00 | 0.00 | 89 | 1007.5 |
| 20260905195030 | 51 | 0 | 0.0 | 1.0 | 0.00 | 0.00 | 0.00 | 90 | 1007.4 |
| 20260905194602 | 51 | 0 | 0.0 | 1.0 | 0.00 | 0.00 | 0.00 | 90 | 1007.4 |
| 20260905194033 | 51 | 0 | 0.0 | 1.0 | 0.00 | 0.00 | 0.00 | 90 | 1007.4 |
| 20260905193531 | 51 | 0 | 0.0 | 1.0 | 0.00 | 0.00 | 0.00 | 90 | 1007.3 |
| 20260905193057 | 51 | 161 | 0.0 | 0.0 | 0.00 | 0.00 | 0.00 | 90 | 1007.2 |
| 20260905192532 | 52 | 0 | 0.0 | 1.0 | 0.00 | 0.00 | 0.00 | 89 | 1007.2 |
| 20260905192034 | 52 | 0 | 0.0 | 1.0 | 0.00 | 0.00 | 0.00 | 89 | 1007.2 |
| 20260905191612 | 52 | 0 | 0.0 | 1.0 | 0.00 | 0.00 | 0.00 | 89 | 1007.1 |
| 20260905191031 | 52 | 0 | 0.0 | 0.0 | 0.00 | 0.00 | 0.00 | 90 | 1007.1 |
| 20260905190533 | 52 | 0 | 0.0 | 0.0 | 0.00 | 0.00 | 0.00 | 90 | 1007.0 |
| 20260905190054 | 52 | 0 | 0.0 | 0.0 | 0.00 | 0.00 | 0.00 | 89 | 1007.0 |
| 20260905185533 | 52 | 0 | 0.0 | 0.0 | 0.00 | 0.00 | 0.00 | 90 | 1006.9 |
| 20260905185033 | 52 | 0 | 0.0 | 0.0 | 0.00 | 0.00 | 0.00 | 90 | 1006.8 |
| 20260905184605 | 53 | 0 | 0.0 | 1.0 | 0.00 | 0.00 | 0.00 | 89 | 1006.8 |
| 20260905184035 | 53 | 0 | 0.0 | 1.0 | 0.00 | 0.00 | 0.00 | 88 | 1006.7 |
| 20260905183535 | 53 | 0 | 0.0 | 1.0 | 0.00 | 0.00 | 0.00 | 88 | 1006.7 |
| 20260905183102 | 53 | 0 | 0.0 | 2.0 | 0.00 | 0.00 | 0.00 | 87 | 1006.6 |
| 20260905182533 | 53 | 0 | 0.0 | 2.0 | 0.00 | 0.00 | 0.00 | 87 | 1006.7 |
| 20260905182032 | 54 | 0 | 0.0 | 1.0 | 0.00 | 0.00 | 0.00 | 87 | 1006.6 |
| 20260905181555 | 54 | 0 | 0.0 | 1.0 | 0.00 | 0.00 | 0.00 | 86 | 1006.4 |
| 20260905181031 | 54 | 0 | 0.0 | 1.0 | 0.00 | 0.00 | 0.00 | 86 | 1006.4 |
| 20260905180532 | 55 | 0 | 0.0 | 3.0 | 0.00 | 0.00 | 0.00 | 86 | 1006.2 |
| 20260905180053 | 55 | 0 | 0.0 | 3.0 | 0.00 | 0.00 | 0.00 | 85 | 1006.2 |
| 20260905175530 | 55 | 0 | 0.0 | 0.0 | 0.00 | 0.00 | 0.00 | 85 | 1006.1 |
| 20260905175031 | 55 | 0 | 0.0 | 1.0 | 0.00 | 0.00 | 0.00 | 84 | 1006.2 |
| 20260905174554 | 55 | 0 | 0.0 | 2.0 | 0.00 | 0.00 | 0.00 | 84 | 1006.1 |
| 20260905174031 | 55 | 65 | 0.0 | 4.0 | 0.00 | 0.00 | 0.00 | 83 | 1006.2 |
| 20260905173530 | 55 | 0 | 0.0 | 4.0 | 0.00 | 0.00 | 0.00 | 83 | 1006.0 |
| 20260905173053 | 55 | 49 | 0.0 | 4.0 | 0.00 | 0.00 | 0.00 | 83 | 1005.9 |
| 20260905172530 | 56 | 0 | 0.0 | 1.0 | 0.00 | 0.00 | 0.00 | 82 | 1005.7 |
| 20260905172032 | 56 | 0 | 0.0 | 1.0 | 0.00 | 0.00 | 0.00 | 82 | 1005.6 |
| 20260905171556 | 56 | 0 | 0.0 | 1.0 | 0.00 | 0.00 | 0.00 | 82 | 1005.4 |
| 20260905171030 | 56 | 0 | 0.0 | 2.0 | 0.00 | 0.00 | 0.00 | 82 | 1005.4 |
| 20260905170529 | 56 | 0 | 0.0 | 2.0 | 0.00 | 0.00 | 0.00 | 83 | 1005.3 |
| 20260905170052 | 56 | 0 | 0.0 | 1.0 | 0.00 | 0.00 | 0.00 | 82 | 1005.3 |
| 20260905165529 | 56 | 0 | 0.0 | 4.0 | 0.00 | 0.00 | 0.00 | 81 | 1005.3 |
| 20260905165030 | 56 | 0 | 0.0 | 4.0 | 0.00 | 0.00 | 0.00 | 80 | 1005.1 |
| 20260905164552 | 56 | 0 | 0.0 | 2.0 | 0.00 | 0.00 | 0.00 | 80 | 1005.0 |
| 20260905164030 | 56 | 0 | 0.0 | 1.0 | 0.00 | 0.00 | 0.00 | 81 | 1004.8 |
| 20260905163530 | 57 | 0 | 0.0 | 1.0 | 0.00 | 0.00 | 0.00 | 80 | 1004.8 |
| 20260905163052 | 57 | 0 | 0.0 | 5.0 | 0.00 | 0.00 | 0.00 | 80 | 1004.7 |
| 20260905162535 | 57 | 0 | 0.0 | 5.0 | 0.00 | 0.00 | 0.00 | 80 | 1004.6 |
| 20260905162030 | 57 | 323 | 1.0 | 5.0 | 0.00 | 0.00 | 0.00 | 79 | 1004.6 |
| 20260905161548 | 57 | 333 | 0.0 | 6.0 | 0.00 | 0.00 | 0.00 | 79 | 1004.5 |
| 20260905161030 | 57 | 167 | 0.0 | 6.0 | 0.00 | 0.00 | 0.00 | 79 | 1004.4 |
| 20260905160530 | 58 | 0 | 0.0 | 4.0 | 0.00 | 0.00 | 0.00 | 78 | 1004.3 |
| 20260905160057 | 58 | 137 | 0.0 | 4.0 | 0.00 | 0.00 | 0.00 | 77 | 1004.2 |
| 20260905155531 | 58 | 74 | 1.0 | 9.0 | 0.00 | 0.00 | 0.00 | 77 | 1004.0 |
| 20260905155031 | 58 | 167 | 1.0 | 9.0 | 0.00 | 0.00 | 0.00 | 77 | 1003.9 |
| 20260905154555 | 58 | 204 | 1.0 | 6.0 | 0.00 | 0.00 | 0.00 | 76 | 1003.8 |
| 20260905154032 | 58 | 272 | 1.0 | 6.0 | 0.00 | 0.00 | 0.00 | 77 | 1003.7 |
| 20260905153531 | 58 | 91 | 1.0 | 6.0 | 0.00 | 0.00 | 0.00 | 76 | 1003.6 |
| 20260905153054 | 58 | 55 | 2.0 | 7.0 | 0.00 | 0.00 | 0.00 | 76 | 1003.6 |
| 20260905152533 | 58 | 146 | 1.0 | 7.0 | 0.00 | 0.00 | 0.00 | 76 | 1003.5 |
| 20260905152033 | 58 | 98 | 1.0 | 7.0 | 0.00 | 0.00 | 0.00 | 77 | 1003.5 |
| 20260905151555 | 58 | 34 | 1.0 | 7.0 | 0.00 | 0.00 | 0.00 | 76 | 1003.4 |
| 20260905151032 | 58 | 176 | 1.0 | 7.0 | 0.00 | 0.00 | 0.00 | 75 | 1003.4 |
| 20260905150532 | 58 | 125 | 1.0 | 7.0 | 0.00 | 0.00 | 0.00 | 74 | 1003.4 |
| 20260905150058 | 58 | 78 | 1.0 | 4.0 | 0.00 | 0.00 | 0.00 | 73 | 1003.3 |
| 20260905145531 | 58 | 174 | 0.0 | 0.0 | 0.00 | 0.00 | 0.00 | 72 | 1003.3 |
| 20260905145030 | 59 | 0 | 0.0 | 7.0 | 0.00 | 0.00 | 0.00 | 71 | 1003.2 |
| 20260905144552 | 59 | 0 | 0.0 | 7.0 | 0.00 | 0.00 | 0.00 | 71 | 1003.2 |
| 20260905144028 | 59 | 345 | 1.0 | 9.0 | 0.00 | 0.00 | 0.00 | 69 | 1003.0 |
| 20260905143530 | 60 | 70 | 1.0 | 9.0 | 0.00 | 0.00 | 0.00 | 69 | 1003.0 |
| 20260905143049 | 60 | 110 | 2.0 | 5.0 | 0.00 | 0.00 | 0.00 | 68 | 1002.7 |
| 20260905142532 | 61 | 68 | 1.0 | 5.0 | 0.00 | 0.00 | 0.00 | 65 | 1002.8 |
| 20260905142033 | 61 | 37 | 1.0 | 9.0 | 0.00 | 0.00 | 0.00 | 64 | 1002.7 |
| 20260905141610 | 61 | 63 | 1.0 | 9.0 | 0.00 | 0.00 | 0.00 | 63 | 1002.6 |
| 20260905141031 | 61 | 152 | 2.0 | 7.0 | 0.00 | 0.00 | 0.00 | 62 | 1002.5 |
| 20260905140532 | 61 | 141 | 1.0 | 7.0 | 0.00 | 0.00 | 0.00 | 63 | 1002.5 |
| 20260905140059 | 61 | 37 | 1.0 | 4.0 | 0.00 | 0.00 | 0.00 | 62 | 1002.5 |
| 20260905135532 | 62 | 210 | 1.0 | 4.0 | 0.00 | 0.00 | 0.00 | 60 | 1002.4 |
| 20260905135029 | 62 | 236 | 0.0 | 3.0 | 0.00 | 0.00 | 0.00 | 63 | 1002.3 |
| 20260905134604 | 62 | 130 | 1.0 | 4.0 | 0.00 | 0.00 | 0.00 | 62 | 1002.2 |
| 20260905134030 | 62 | 0 | 0.0 | 5.0 | 0.00 | 0.00 | 0.00 | 68 | 1002.2 |
| 20260905133533 | 62 | 188 | 1.0 | 5.0 | 0.00 | 0.00 | 0.00 | 66 | 1002.0 |
| 20260905133055 | 62 | 0 | 1.0 | 4.0 | 0.00 | 0.00 | 0.00 | 66 | 1001.8 |
| 20260905132530 | 63 | 112 | 0.0 | 4.0 | 0.00 | 0.00 | 0.00 | 65 | 1001.8 |
| 20260905132030 | 62 | 18 | 1.0 | 4.0 | 0.00 | 0.00 | 0.00 | 65 | 1001.7 |
| 20260905131555 | 62 | 163 | 0.0 | 4.0 | 0.00 | 0.00 | 0.00 | 62 | 1001.8 |
| 20260905131034 | 62 | 0 | 0.0 | 4.0 | 0.00 | 0.00 | 0.00 | 65 | 1001.7 |
| 20260905130529 | 61 | 66 | 0.0 | 2.0 | 0.00 | 0.00 | 0.00 | 66 | 1001.6 |
| 20260905130055 | 61 | 299 | 0.0 | 3.0 | 0.00 | 0.00 | 0.00 | 66 | 1001.7 |
| 20260905125531 | 61 | 23 | 1.0 | 3.0 | 0.00 | 0.00 | 0.00 | 68 | 1001.6 |
| 20260905125031 | 61 | 0 | 0.0 | 2.0 | 0.00 | 0.00 | 0.00 | 74 | 1001.5 |
| 20260905124551 | 62 | 0 | 0.0 | 3.0 | 0.00 | 0.00 | 0.00 | 72 | 1001.6 |
| 20260905124033 | 61 | 46 | 0.0 | 3.0 | 0.00 | 0.00 | 0.00 | 70 | 1001.3 |
| 20260905123530 | 61 | 46 | 0.0 | 2.0 | 0.00 | 0.00 | 0.00 | 75 | 1001.2 |
| 20260905123100 | 61 | 0 | 0.0 | 2.0 | 0.00 | 0.00 | 0.00 | 75 | 1001.1 |
| 20260905122530 | 61 | 32 | 0.0 | 3.0 | 0.00 | 0.00 | 0.00 | 76 | 1001.1 |
| 20260905122033 | 60 | 0 | 0.0 | 4.0 | 0.00 | 0.00 | 0.00 | 77 | 1001.1 |
| 20260905121552 | 60 | 42 | 1.0 | 4.0 | 0.00 | 0.00 | 0.00 | 77 | 1001.0 |
| 20260905121032 | 61 | 37 | 1.0 | 3.0 | 0.00 | 0.00 | 0.00 | 77 | 1001.1 |
| 20260905120534 | 60 | 32 | 0.0 | 2.0 | 0.00 | 0.00 | 0.00 | 78 | 1001.0 |
| 20260905120050 | 60 | 56 | 0.0 | 2.0 | 0.00 | 0.00 | 0.00 | 77 | 1001.0 |
| 20260905115530 | 60 | 0 | 0.0 | 2.0 | 0.00 | 0.00 | 0.00 | 77 | 1001.0 |
| 20260905115030 | 60 | 60 | 1.0 | 2.0 | 0.00 | 0.00 | 0.00 | 76 | 1000.9 |
| 20260905114627 | 60 | 108 | 0.0 | 3.0 | 0.00 | 0.00 | 0.00 | 77 | 1000.9 |
| 20260905114030 | 59 | 0 | 1.0 | 3.0 | 0.00 | 0.00 | 0.00 | 78 | 1000.8 |
| 20260905113531 | 59 | 85 | 1.0 | 2.0 | 0.00 | 0.00 | 0.00 | 76 | 1000.8 |
| 20260905113056 | 59 | 48 | 0.0 | 3.0 | 0.00 | 0.00 | 0.00 | 77 | 1000.7 |
| 20260905112530 | 59 | 0 | 1.0 | 3.0 | 0.00 | 0.00 | 0.00 | 77 | 1000.7 |
| 20260905112029 | 59 | 48 | 0.0 | 3.0 | 0.00 | 0.00 | 0.00 | 78 | 1000.5 |
| 20260905111554 | 58 | 73 | 1.0 | 4.0 | 0.00 | 0.00 | 0.00 | 78 | 1000.5 |
| 20260905111030 | 58 | 0 | 1.0 | 4.0 | 0.00 | 0.00 | 0.00 | 79 | 1000.5 |
| 20260905110532 | 58 | 41 | 0.0 | 4.0 | 0.00 | 0.00 | 0.00 | 80 | 1000.4 |
| 20260905110048 | 58 | 0 | 0.0 | 4.0 | 0.00 | 0.00 | 0.00 | 80 | 1000.3 |
| 20260905105530 | 58 | 0 | 2.0 | 4.0 | 0.00 | 0.00 | 0.00 | 79 | 1000.3 |
| 20260905105034 | 57 | 0 | 1.0 | 3.0 | 0.00 | 0.00 | 0.00 | 81 | 1000.2 |
| 20260905104559 | 57 | 0 | 0.0 | 3.0 | 0.00 | 0.00 | 0.00 | 82 | 1000.2 |
| 20260905104030 | 56 | 0 | 1.0 | 4.0 | 0.00 | 0.00 | 0.00 | 82 | 1000.1 |
| 20260905103530 | 56 | 0 | 0.0 | 4.0 | 0.00 | 0.00 | 0.00 | 83 | 1000.1 |
| 20260905103056 | 56 | 37 | 2.0 | 4.0 | 0.00 | 0.00 | 0.00 | 82 | 1000.1 |
| 20260905102532 | 56 | 35 | 1.0 | 4.0 | 0.00 | 0.00 | 0.00 | 82 | 1000.0 |
| 20260905102033 | 57 | 84 | 1.0 | 4.0 | 0.00 | 0.00 | 0.00 | 81 | 1000.1 |
| 20260905101550 | 57 | 0 | 0.0 | 3.0 | 0.00 | 0.00 | 0.00 | 83 | 999.9 |
| 20260905101031 | 56 | 0 | 0.0 | 3.0 | 0.00 | 0.00 | 0.00 | 83 | 999.8 |
| 20260905100531 | 56 | 35 | 0.0 | 4.0 | 0.00 | 0.00 | 0.00 | 82 | 999.8 |
| 20260905100108 | 56 | 0 | 1.0 | 4.0 | 0.00 | 0.00 | 0.00 | 82 | 999.9 |
| 20260905095531 | 56 | 46 | 0.0 | 4.0 | 0.00 | 0.00 | 0.00 | 83 | 999.9 |
| 20260905095034 | 56 | 63 | 0.0 | 4.0 | 0.00 | 0.00 | 0.00 | 83 | 999.8 |
| 20260905094603 | 56 | 109 | 1.0 | 4.0 | 0.00 | 0.00 | 0.00 | 83 | 999.8 |
| 20260905094032 | 56 | 0 | 1.0 | 4.0 | 0.00 | 0.00 | 0.00 | 82 | 999.8 |
| 20260905093530 | 56 | 87 | 1.0 | 3.0 | 0.00 | 0.00 | 0.00 | 82 | 999.6 |
| 20260905093057 | 56 | 48 | 0.0 | 4.0 | 0.00 | 0.00 | 0.00 | 82 | 999.6 |
| 20260905092533 | 56 | 0 | 0.0 | 4.0 | 0.00 | 0.00 | 0.00 | 83 | 999.6 |
| 20260905092029 | 56 | 44 | 0.0 | 4.0 | 0.00 | 0.00 | 0.00 | 83 | 999.6 |
| 20260905091600 | 55 | 90 | 0.0 | 4.0 | 0.00 | 0.00 | 0.00 | 83 | 999.5 |
| 20260905091031 | 56 | 44 | 0.0 | 4.0 | 0.00 | 0.00 | 0.00 | 84 | 999.5 |
| 20260905090529 | 56 | 0 | 0.0 | 4.0 | 0.00 | 0.00 | 0.00 | 83 | 999.4 |
| 20260905090048 | 56 | 30 | 0.0 | 4.0 | 0.00 | 0.00 | 0.00 | 84 | 999.4 |
| 20260905085531 | 55 | 0 | 0.0 | 4.0 | 0.00 | 0.00 | 0.00 | 83 | 999.2 |
| 20260905085031 | 55 | 32 | 1.0 | 4.0 | 0.00 | 0.00 | 0.00 | 83 | 999.3 |
| 20260905084549 | 55 | 0 | 0.0 | 3.0 | 0.00 | 0.00 | 0.00 | 84 | 999.2 |
| 20260905084030 | 55 | 0 | 0.0 | 4.0 | 0.00 | 0.00 | 0.00 | 85 | 999.1 |
| 20260905083531 | 54 | 0 | 0.0 | 4.0 | 0.00 | 0.00 | 0.00 | 86 | 999.2 |
| 20260905083055 | 54 | 138 | 1.0 | 4.0 | 0.00 | 0.00 | 0.00 | 86 | 999.1 |
| 20260905082530 | 54 | 0 | 0.0 | 0.0 | 0.00 | 0.00 | 0.00 | 87 | 999.0 |
| 20260905082033 | 53 | 0 | 0.0 | 0.0 | 0.00 | 0.00 | 0.00 | 87 | 999.0 |
| 20260905081550 | 53 | 0 | 0.0 | 0.0 | 0.00 | 0.00 | 0.00 | 88 | 998.9 |
| 20260905081030 | 53 | 0 | 0.0 | 0.0 | 0.00 | 0.00 | 0.00 | 87 | 998.9 |
| 20260905080530 | 53 | 0 | 0.0 | 0.0 | 0.00 | 0.00 | 0.00 | 88 | 998.9 |
| 20260905080100 | 53 | 0 | 0.0 | 0.0 | 0.00 | 0.00 | 0.00 | 88 | 998.9 |
| 20260905075530 | 53 | 0 | 0.0 | 0.0 | 0.00 | 0.00 | 0.00 | 89 | 998.8 |
| 20260905075030 | 53 | 0 | 0.0 | 0.0 | 0.00 | 0.00 | 0.00 | 88 | 998.9 |
| 20260905074556 | 53 | 0 | 0.0 | 0.0 | 0.00 | 0.00 | 0.00 | 89 | 998.8 |
| 20260905074030 | 53 | 0 | 0.0 | 0.0 | 0.00 | 0.00 | 0.00 | 89 | 998.8 |
| 20260905073530 | 52 | 0 | 0.0 | 0.0 | 0.00 | 0.00 | 0.00 | 89 | 998.7 |
| 20260905073103 | 53 | 0 | 0.0 | 0.0 | 0.00 | 0.00 | 0.00 | 89 | 998.7 |
| 20260905072530 | 52 | 0 | 0.0 | 0.0 | 0.00 | 0.00 | 0.00 | 89 | 998.6 |
| 20260905072029 | 52 | 0 | 0.0 | 0.0 | 0.00 | 0.00 | 0.00 | 89 | 998.6 |
| 20260905071551 | 53 | 0 | 0.0 | 0.0 | 0.00 | 0.00 | 0.00 | 89 | 998.6 |
| 20260905071031 | 53 | 0 | 0.0 | 0.0 | 0.00 | 0.00 | 0.00 | 89 | 998.5 |
| 20260905070530 | 53 | 0 | 0.0 | 3.0 | 0.00 | 0.00 | 0.00 | 90 | 998.5 |
| 20260905070050 | 52 | 0 | 0.0 | 3.0 | 0.00 | 0.00 | 0.00 | 90 | 998.4 |
| 20260905065530 | 52 | 0 | 0.0 | 2.0 | 0.00 | 0.00 | 0.00 | 92 | 998.3 |
| 20260905065036 | 52 | 74 | 0.0 | 2.0 | 0.00 | 0.00 | 0.00 | 92 | 998.3 |
| 20260905064609 | 52 | 32 | 0.0 | 0.0 | 0.00 | 0.00 | 0.00 | 93 | 998.4 |
| 20260905064030 | 51 | 0 | 0.0 | 0.0 | 0.00 | 0.00 | 0.00 | 93 | 998.3 |
| 20260905063533 | 51 | 0 | 0.0 | 0.0 | 0.00 | 0.00 | 0.00 | 93 | 998.2 |
| 20260905063057 | 51 | 0 | 0.0 | 0.0 | 0.00 | 0.00 | 0.00 | 94 | 998.1 |
| 20260905062530 | 50 | 0 | 0.0 | 0.0 | 0.00 | 0.00 | 0.00 | 94 | 998.2 |
| 20260905062033 | 50 | 0 | 0.0 | 0.0 | 0.00 | 0.00 | 0.00 | 94 | 998.0 |
| 20260905061617 | 50 | 0 | 0.0 | 0.0 | 0.00 | 0.00 | 0.00 | 94 | 998.1 |
| 20260905061029 | 50 | 0 | 0.0 | 0.0 | 0.00 | 0.00 | 0.00 | 94 | 998.0 |
| 20260905060530 | 50 | 0 | 0.0 | 0.0 | 0.00 | 0.00 | 0.00 | 93 | 997.9 |
| 20260905060104 | 50 | 0 | 0.0 | 0.0 | 0.00 | 0.00 | 0.00 | 93 | 998.0 |
| 20260905055531 | 50 | 0 | 0.0 | 0.0 | 0.00 | 0.00 | 0.00 | 94 | 997.9 |
| 20260905055031 | 50 | 0 | 0.0 | 0.0 | 0.00 | 0.00 | 0.00 | 94 | 997.8 |
| 20260905054604 | 50 | 0 | 0.0 | 0.0 | 0.00 | 0.00 | 0.00 | 94 | 997.7 |
| 20260905054030 | 49 | 0 | 0.0 | 0.0 | 0.00 | 0.00 | 0.00 | 94 | 997.6 |
| 20260905053530 | 49 | 0 | 0.0 | 0.0 | 0.00 | 0.00 | 0.00 | 95 | 997.5 |
| 20260905053052 | 49 | 0 | 0.0 | 0.0 | 0.00 | 0.00 | 0.00 | 95 | 997.5 |
| 20260905052530 | 49 | 0 | 0.0 | 0.0 | 0.00 | 0.00 | 0.00 | 95 | 997.6 |
| 20260905052030 | 49 | 0 | 0.0 | 0.0 | 0.00 | 0.00 | 0.00 | 95 | 997.5 |
| 20260905051607 | 49 | 0 | 0.0 | 0.0 | 0.00 | 0.00 | 0.00 | 94 | 997.5 |
| 20260905051030 | 49 | 0 | 0.0 | 0.0 | 0.00 | 0.00 | 0.00 | 94 | 997.4 |
| 20260905050533 | 49 | 0 | 0.0 | 0.0 | 0.00 | 0.00 | 0.00 | 94 | 997.4 |
| 20260905045532 | 49 | 0 | 0.0 | 0.0 | 0.00 | 0.00 | 0.00 | 94 | 997.4 |
| 20260905045030 | 48 | 0 | 0.0 | 0.0 | 0.00 | 0.00 | 0.00 | 94 | 997.4 |
| 20260905044556 | 48 | 0 | 0.0 | 0.0 | 0.00 | 0.00 | 0.00 | 94 | 997.3 |
| 20260905044033 | 48 | 0 | 0.0 | 0.0 | 0.00 | 0.00 | 0.00 | 94 | 997.3 |
| 20260905043530 | 48 | 0 | 0.0 | 0.0 | 0.00 | 0.00 | 0.00 | 94 | 997.3 |
| 20260905043052 | 48 | 0 | 0.0 | 0.0 | 0.00 | 0.00 | 0.00 | 94 | 997.3 |
| 20260905042531 | 48 | 0 | 0.0 | 0.0 | 0.00 | 0.00 | 0.00 | 94 | 997.2 |
| 20260905042032 | 48 | 0 | 0.0 | 0.0 | 0.00 | 0.00 | 0.00 | 94 | 997.2 |
| 20260905041551 | 48 | 0 | 0.0 | 0.0 | 0.00 | 0.00 | 0.00 | 94 | 997.1 |
| 20260905041030 | 48 | 0 | 0.0 | 0.0 | 0.00 | 0.00 | 0.00 | 94 | 997.1 |
| 20260905040530 | 48 | 0 | 0.0 | 0.0 | 0.00 | 0.00 | 0.00 | 94 | 997.1 |
| 20260905040054 | 48 | 0 | 0.0 | 0.0 | 0.00 | 0.00 | 0.00 | 94 | 997.0 |
| 20260905035531 | 48 | 0 | 0.0 | 0.0 | 0.00 | 0.00 | 0.00 | 94 | 997.0 |
| 20260905035031 | 48 | 0 | 0.0 | 0.0 | 0.00 | 0.00 | 0.00 | 93 | 997.0 |
| 20260905034608 | 48 | 0 | 0.0 | 0.0 | 0.00 | 0.00 | 0.00 | 93 | 997.0 |
| 20260905034030 | 48 | 0 | 0.0 | 0.0 | 0.00 | 0.00 | 0.00 | 93 | 997.0 |
| 20260905033530 | 48 | 0 | 0.0 | 0.0 | 0.00 | 0.00 | 0.00 | 93 | 996.9 |
| 20260905033103 | 48 | 0 | 0.0 | 0.0 | 0.00 | 0.00 | 0.00 | 92 | 996.8 |
| 20260905032529 | 48 | 0 | 0.0 | 0.0 | 0.00 | 0.00 | 0.00 | 92 | 996.9 |
| 20260905032030 | 48 | 0 | 0.0 | 0.0 | 0.00 | 0.00 | 0.00 | 92 | 996.8 |
| 20260905031558 | 48 | 0 | 0.0 | 0.0 | 0.00 | 0.00 | 0.00 | 92 | 996.8 |
| 20260905031030 | 48 | 0 | 0.0 | 0.0 | 0.00 | 0.00 | 0.00 | 92 | 996.9 |
| 20260905030531 | 48 | 0 | 0.0 | 0.0 | 0.00 | 0.00 | 0.00 | 92 | 996.8 |
| 20260905030047 | 48 | 0 | 0.0 | 0.0 | 0.00 | 0.00 | 0.00 | 92 | 996.8 |
| 20260905025531 | 48 | 0 | 0.0 | 0.0 | 0.00 | 0.00 | 0.00 | 92 | 996.8 |
| 20260905025033 | 48 | 0 | 0.0 | 0.0 | 0.00 | 0.00 | 0.00 | 92 | 996.7 |
| 20260905024551 | 48 | 0 | 0.0 | 0.0 | 0.00 | 0.00 | 0.00 | 92 | 996.7 |
| 20260905024032 | 48 | 0 | 0.0 | 0.0 | 0.00 | 0.00 | 0.00 | 92 | 996.7 |
| 20260905023530 | 48 | 0 | 0.0 | 0.0 | 0.00 | 0.00 | 0.00 | 92 | 996.6 |
| 20260905023125 | 48 | 0 | 0.0 | 0.0 | 0.00 | 0.00 | 0.00 | 92 | 996.6 |
| 20260905022534 | 48 | 0 | 0.0 | 0.0 | 0.00 | 0.00 | 0.00 | 92 | 996.7 |
| 20260905022030 | 49 | 0 | 0.0 | 0.0 | 0.00 | 0.00 | 0.00 | 93 | 996.6 |
| 20260905021549 | 49 | 0 | 0.0 | 0.0 | 0.00 | 0.00 | 0.00 | 93 | 996.5 |
| 20260905021029 | 49 | 0 | 0.0 | 0.0 | 0.00 | 0.00 | 0.00 | 92 | 996.6 |
| 20260905020532 | 49 | 0 | 0.0 | 0.0 | 0.00 | 0.00 | 0.00 | 93 | 996.6 |
| 20260905020104 | 48 | 0 | 0.0 | 0.0 | 0.00 | 0.00 | 0.00 | 92 | 996.5 |
| 20260905015529 | 48 | 0 | 0.0 | 0.0 | 0.00 | 0.01 | 0.00 | 92 | 996.6 |
| 20260905015033 | 48 | 0 | 0.0 | 0.0 | 0.00 | 0.01 | 0.00 | 92 | 996.5 |
| 20260905014552 | 48 | 0 | 0.0 | 0.0 | 0.00 | 0.01 | 0.00 | 92 | 996.5 |
| 20260905014029 | 48 | 0 | 0.0 | 0.0 | 0.00 | 0.01 | 0.00 | 91 | 996.4 |
| 20260905013528 | 48 | 0 | 0.0 | 0.0 | 0.00 | 0.01 | 0.00 | 91 | 996.4 |
| 20260905013053 | 48 | 0 | 0.0 | 0.0 | 0.00 | 0.01 | 0.00 | 91 | 996.5 |
| 20260905012529 | 48 | 0 | 0.0 | 0.0 | 0.00 | 0.01 | 0.00 | 91 | 996.4 |
| 20260905012028 | 49 | 0 | 0.0 | 0.0 | 0.00 | 0.01 | 0.00 | 91 | 996.4 |
| 20260905011557 | 49 | 0 | 0.0 | 0.0 | 0.00 | 0.01 | 0.00 | 91 | 996.4 |
| 20260905011030 | 49 | 0 | 0.0 | 0.0 | 0.00 | 0.01 | 0.00 | 91 | 996.3 |
| 20260905010533 | 48 | 0 | 0.0 | 0.0 | 0.00 | 0.01 | 0.00 | 91 | 996.2 |
| 20260905010050 | 48 | 0 | 0.0 | 0.0 | 0.00 | 0.01 | 0.00 | 91 | 996.3 |
| 20260905005531 | 48 | 0 | 0.0 | 0.0 | 0.00 | 0.01 | 0.00 | 91 | 996.3 |
| 20260905005028 | 48 | 0 | 0.0 | 0.0 | 0.00 | 0.01 | 0.00 | 92 | 996.3 |
| 20260905004549 | 48 | 0 | 0.0 | 0.0 | 0.00 | 0.01 | 0.00 | 92 | 996.3 |
| 20260905004031 | 48 | 0 | 0.0 | 0.0 | 0.00 | 0.01 | 0.00 | 92 | 996.3 |
| 20260905003531 | 47 | 0 | 0.0 | 0.0 | 0.00 | 0.01 | 0.00 | 92 | 996.4 |
| 20260905003054 | 48 | 0 | 0.0 | 0.0 | 0.00 | 0.01 | 0.00 | 91 | 996.4 |
| 20260905002530 | 48 | 0 | 0.0 | 0.0 | 0.00 | 0.01 | 0.00 | 91 | 996.3 |
| 20260905002029 | 48 | 0 | 0.0 | 1.0 | 0.00 | 0.01 | 0.00 | 91 | 996.4 |
| 20260905001558 | 48 | 0 | 0.0 | 1.0 | 0.00 | 0.01 | 0.00 | 91 | 996.3 |
| 20260905001030 | 48 | 240 | 1.0 | 1.0 | 0.00 | 0.01 | 0.00 | 90 | 996.3 |
| 20260905000531 | 48 | 243 | 1.0 | 2.0 | 0.00 | 0.01 | 0.00 | 90 | 996.3 |
| 20260904235528 | 48 | 255 | 1.0 | 2.0 | 0.00 | 0.01 | 0.00 | 89 | 996.3 |
| 20260904235030 | 48 | 252 | 1.0 | 2.0 | 0.00 | 0.01 | 0.00 | 90 | 996.3 |
| 20260904234600 | 48 | 256 | 0.0 | 0.0 | 0.00 | 0.01 | 0.00 | 90 | 996.4 |
| 20260904234035 | 48 | 0 | 0.0 | 0.0 | 0.00 | 0.01 | 0.00 | 91 | 996.4 |
| 20260904233530 | 48 | 0 | 0.0 | 0.0 | 0.00 | 0.01 | 0.00 | 91 | 996.3 |
| 20260904233052 | 48 | 0 | 0.0 | 0.0 | 0.00 | 0.01 | 0.00 | 91 | 996.4 |
| 20260904232531 | 48 | 0 | 0.0 | 0.0 | 0.00 | 0.01 | 0.00 | 92 | 996.4 |
| 20260904232031 | 47 | 0 | 0.0 | 0.0 | 0.00 | 0.01 | 0.00 | 92 | 996.5 |
| 20260904231602 | 47 | 0 | 0.0 | 0.0 | 0.00 | 0.01 | 0.00 | 92 | 996.4 |
| 20260904231034 | 47 | 0 | 0.0 | 0.0 | 0.00 | 0.01 | 0.00 | 91 | 996.4 |
| 20260904230532 | 48 | 0 | 0.0 | 0.0 | 0.00 | 0.01 | 0.00 | 90 | 996.5 |
| 20260904230051 | 48 | 0 | 0.0 | 0.0 | 0.00 | 0.01 | 0.00 | 90 | 996.4 |
| 20260904225532 | 48 | 0 | 0.0 | 0.0 | 0.00 | 0.01 | 0.00 | 90 | 996.4 |
| 20260904225031 | 48 | 0 | 0.0 | 2.0 | 0.00 | 0.01 | 0.00 | 90 | 996.3 |
| 20260904224549 | 49 | 0 | 0.0 | 2.0 | 0.00 | 0.01 | 0.00 | 89 | 996.3 |
| 20260904224032 | 49 | 163 | 0.0 | 2.0 | 0.00 | 0.01 | 0.00 | 89 | 996.3 |
| 20260904223533 | 49 | 0 | 0.0 | 0.0 | 0.00 | 0.01 | 0.00 | 89 | 996.4 |
| 20260904223056 | 49 | 0 | 0.0 | 0.0 | 0.00 | 0.01 | 0.00 | 89 | 996.4 |
| 20260904222530 | 49 | 0 | 0.0 | 0.0 | 0.00 | 0.01 | 0.00 | 89 | 996.4 |
| 20260904222033 | 49 | 0 | 0.0 | 0.0 | 0.00 | 0.01 | 0.00 | 90 | 996.3 |
| 20260904221550 | 49 | 0 | 0.0 | 0.0 | 0.00 | 0.01 | 0.00 | 90 | 996.4 |
| 20260904221031 | 49 | 0 | 0.0 | 0.0 | 0.00 | 0.01 | 0.00 | 90 | 996.4 |
| 20260904220532 | 49 | 0 | 0.0 | 0.0 | 0.00 | 0.01 | 0.00 | 90 | 996.5 |
| 20260904220115 | 49 | 0 | 0.0 | 0.0 | 0.00 | 0.01 | 0.00 | 90 | 996.4 |
| 20260904215533 | 49 | 0 | 0.0 | 0.0 | 0.00 | 0.01 | 0.01 | 90 | 996.4 |
| 20260904215035 | 49 | 0 | 0.0 | 0.0 | 0.00 | 0.01 | 0.01 | 91 | 996.4 |
| 20260904214556 | 49 | 0 | 0.0 | 0.0 | 0.00 | 0.01 | 0.01 | 91 | 996.4 |
| 20260904214030 | 48 | 0 | 0.0 | 0.0 | 0.00 | 0.01 | 0.01 | 91 | 996.4 |
| 20260904213533 | 48 | 0 | 0.0 | 0.0 | 0.00 | 0.01 | 0.01 | 91 | 996.4 |
| 20260904213055 | 48 | 0 | 0.0 | 0.0 | 0.00 | 0.01 | 0.01 | 91 | 996.4 |
| 20260904212534 | 48 | 0 | 0.0 | 0.0 | 0.00 | 0.01 | 0.01 | 91 | 996.4 |